Location: Balagbag Mahabang Kahoy
(14.1562°N, 120.9200°E)
Time: 04:41:02
(UTC+00:00)

Cosmos 1110 Rocket - Pass Details

Date: 16 January 2026
Orbit: 749 x 776 km, 74.0° (Epoch: 15 February)

Event Time Altitude Azimuth Distance (km) Brightness Sun altitude
Exits shadow 20:28:59 69° 178° (S) 805 4.0 -27.4°
Drops below altitude 10° 20:33:30 10° 169° (S) 2,277 6.7 -26.3°
Sets 20:35:52 0° 168° (SSE) 3,205 7.6 -25.8°
